Weather History for CYZP - March, 2013

Change the Weather History Date:

Sunday, March 10, 2013

  Actual Average Record
Temperature  
Mean Temperature 36 °F -  
Max Temperature 43 °F 48 °F 50 °F (1998)
Min Temperature 30 °F 39 °F 23 °F (2003)
Degree Days  
Heating Degree Days 28    
Moisture  
Dew Point 33 °F    
Average Humidity 82    
Maximum Humidity 100    
Minimum Humidity 66    
Precipitation  
Precipitation 0.00 in 0.32 in - ()
Sea Level Pressure  
Sea Level Pressure 30.47 in    
Wind  
Wind Speed 7 mph ()    
Max Wind Speed 23 mph    
Max Gust Speed -    
Visibility 8.8 miles    
Events Rain    
Averages and records for this station are not official NWS values.
T = Trace of Precipitation, MM = Missing Value Source: Averaged Metar Reports

Daily Weather History Graph

Daily Weather History Graph

Search for Another Location

Airport or City:

Trip Planner

Search our weather history database for the weather conditions in past years. The results will help you decide how hot, cold, wet, or windy it might be!

Date:

Astronomy

Mar. 10, 2013 Rise Set
Actual Time 8:12 AM PDT 7:43 PM PDT
Civil Twilight 7:38 AM PDT 8:17 PM PDT
Nautical Twilight 6:57 AM PDT 8:58 PM PDT
Astronomical Twilight 6:16 AM PDT 9:39 PM PDT
Moon 7:21 AM PDT (3/10) 6:58 PM PDT (3/10)
Length of Visible Light 12h 39m
Length of Day
11h 30m
Waning Crescent, 1% of the Moon is Illuminated
Mar 10
Waning Crescent
Mar 11
New
Mar 19
First Quarter
Mar 27
Full
Apr 2
Last Quarter

Hourly Weather History & Observations

Time (PDT) Temp. Windchill Dew Point Humidity Pressure Visibility Wind Dir Wind Speed Gust Speed Precip Events Conditions
12:00 AM 37.4 °F 33.8 °F 32.0 °F 81% 30.44 in 9.0 mi South 4.6 mph - N/A   Mostly Cloudy
12:21 AM 37.4 °F 32.8 °F 32.0 °F 81% 30.45 in 9.0 mi SSW 5.8 mph - N/A Rain Light Rain
12:50 AM 35.6 °F 29.2 °F 33.8 °F 93% 30.46 in 5.0 mi South 8.1 mph - N/A Rain Rain
12:58 AM 35.6 °F 28.6 °F 33.8 °F 93% 30.47 in 7.0 mi SSW 9.2 mph - N/A Rain Light Rain
1:29 AM 35.6 °F 30.7 °F 32.0 °F 87% 30.47 in 9.0 mi SSE 5.8 mph - N/A   Overcast
3:00 AM 33.8 °F 25.8 °F 32.0 °F 93% 30.47 in 9.0 mi WSW 10.4 mph - N/A   Scattered Clouds
4:00 AM 35.6 °F 28.6 °F 32.0 °F 87% 30.47 in 9.0 mi West 9.2 mph - N/A   Scattered Clouds
5:00 AM 36 °F - - % 30.47 in - SW 6.9 mph - -  
5:31 AM 35.6 °F 28.6 °F 33.8 °F 93% 30.48 in 9.0 mi SW 9.2 mph - N/A   Mostly Cloudy
6:00 AM 35.6 °F 31.7 °F 32.0 °F 87% 30.48 in 9.0 mi WSW 4.6 mph - N/A   Partly Cloudy
7:00 AM 30.2 °F - 30.2 °F 100% 30.48 in 9.0 mi South 2.3 mph - N/A   Clear
8:00 AM 33.8 °F 27.0 °F 30.2 °F 87% 30.48 in 9.0 mi SW 8.1 mph - N/A   Partly Cloudy
9:00 AM 35.6 °F 29.9 °F 32.0 °F 87% 30.47 in 9.0 mi WSW 6.9 mph - N/A   Clear
10:00 AM 37.4 °F 31.4 °F 32.0 °F 81% 30.48 in 9.0 mi WSW 8.1 mph - N/A   Mostly Cloudy
11:00 AM 41 °F - - % 30.47 in - WSW 4.6 mph - -  
11:00 AM 39.2 °F 35.0 °F 33.8 °F 81% 30.48 in 9.0 mi WSW 5.8 mph - N/A   Clear
12:00 PM 39.2 °F 32.5 °F 33.8 °F 81% 30.48 in 9.0 mi SW 10.4 mph - N/A   Overcast
1:00 PM 41.0 °F 33.9 °F 32.0 °F 70% 30.48 in 9.0 mi WSW 12.7 mph - N/A   Mostly Cloudy
1:41 PM 41.0 °F 35.8 °F 33.8 °F 76% 30.48 in 9.0 mi WSW 8.1 mph - N/A Rain Light Rain
1:51 PM 41.0 °F 36.4 °F 33.8 °F 76% 30.48 in 9.0 mi WSW 6.9 mph - N/A   Overcast
2:00 PM 41.0 °F 35.8 °F 35.6 °F 81% 30.48 in 9.0 mi WSW 8.1 mph - N/A   Overcast
2:57 PM 42.8 °F 34.3 °F 33.8 °F 70% 30.47 in 9.0 mi WSW 19.6 mph - N/A   Overcast
3:00 PM 41.0 °F 31.1 °F 33.8 °F 76% 30.47 in 9.0 mi WSW 23.0 mph - N/A   Overcast
4:00 PM 42.8 °F 35.4 °F 33.8 °F 70% 30.46 in 9.0 mi WSW 15.0 mph - N/A   Overcast
5:00 PM 43 °F - - % 30.46 in - WSW 13.8 mph - -  
5:00 PM 42.8 °F 36.2 °F 32.0 °F 66% 30.46 in 9.0 mi WSW 12.7 mph - N/A   Overcast
6:00 PM 42.8 °F 35.4 °F 32.0 °F 66% 30.45 in 9.0 mi WSW 15.0 mph - N/A   Partly Cloudy
7:00 PM 39.2 °F 30.8 °F 33.8 °F 81% 30.45 in 9.0 mi WSW 15.0 mph - N/A   Mostly Cloudy
8:00 PM 37.4 °F 32.1 °F 32.0 °F 81% 30.45 in 9.0 mi WSW 6.9 mph - N/A   Mostly Cloudy
9:00 PM 37.4 °F 30.3 °F 33.8 °F 87% 30.45 in 9.0 mi West 10.4 mph - N/A   Scattered Clouds
10:00 PM 35.6 °F 30.7 °F 32.0 °F 87% 30.46 in 9.0 mi WSW 5.8 mph - N/A   Overcast
11:00 PM 35 °F - - % 30.46 in - SW 3.5 mph - -  
11:00 PM 35.6 °F 31.7 °F 32.0 °F 87% 30.46 in 9.0 mi SW 4.6 mph - N/A   Scattered Clouds
12:00 AM 35.6 °F 29.2 °F 32.0 °F 87% 30.46 in 9.0 mi SW 8.1 mph - N/A   Partly Cloudy